Orbital Elements at Epoch 2459000.5 (2020-May-31.0) TDB
Reference: JPL 24 (heliocentric ecliptic J2000)
Element | Value | Uncertainty (1-sigma) | Units |
e | .2798927227452853 | 4.3928e-08 | |
a | 2.451406445771606 | 9.0514e-09 | au |
q | 1.765275621109249 | 1.1186e-07 | au |
i | 12.6166260283259 | 4.8869e-06 | deg |
node | 128.5834124390338 | 1.5218e-05 | deg |
peri | 249.8401769654147 | 1.7744e-05 | deg |
M | 305.9798173521961 | 9.2327e-06 | deg |
tp | 2459210.865714583116 (2020-Dec-27.36571458) | 3.6572e-05 | TDB |
period | 1401.914127978252 3.84 | 7.7645e-06 2.126e-08 | d yr |
n | .2567917626446694 | 1.4222e-09 | deg/d |
Q | 3.137537270433964 | 1.1585e-08 | au |
|
| | Orbit Determination Parameters
Additional Information
|